Location: Palomar Mountain Lodge
(33.3110°N, 116.8495°W)
Time: 23:49:30
(UTC-07:00)

Atlas Centaur 2 - Pass Details

Date: 12 July 2018
Orbit: 459 x 1312 km, 30.4° (Epoch: 24 September)

Event Time Altitude Azimuth Distance (km) Brightness Sun altitude
Rises 22:42:58 0° 264° (W) 3,973 6.0 -26.7°
Reaches altitude 10° 22:46:03 10° 262° (W) 2,890 5.2 -27.1°
Enters shadow 22:52:16 62° 221° (SW) 1,018 2.4 -27.8°
